Terminal Aerodrome Forecast
Issued by NWS

Home | Current Version | Previous Version | Text Only | Print | Product List | Glossary On
Versions: 1 2 3 4 5 6 7 8 9 10 11 12 13
000
FTUS45 KREV 050520
TAFRNO
TAF
KRNO 050520Z 0506/0606 32011KT P6SM VCSH BKN070 OVC100
     FM051400 34006KT P6SM -SHRA VCTS BKN050CB OVC070
     FM051900 31010KT 4SM -TSRA BKN040CB
     FM060300 VRB04KT P6SM VCSH BKN070=

USA.gov is the U.S. government's official web portal to all federal, state and local government web resources and services.